Location: Kershaw
(34.5481°N, 80.5823°W)
Time: 16:44:00
(UTC+00:00)

Transit 2A - Pass Details

Date: 10 October 2022
Orbit: 598 x 959 km, 66.7° (Epoch: 06 December)

Event Time Altitude Azimuth Distance (km) Brightness Sun altitude
Rises 01:32:11 0° 185° (S) 2,965 - -32.8°
Reaches altitude 10° 01:34:41 10° 176° (S) 2,014 - -33.3°
Maximum altitude 01:38:45 34° 111° (ESE) 1,007 - -34.1°
Drops below altitude 10° 01:42:40 10° 46° (NE) 1,942 - -34.9°
Sets 01:45:01 0° 37° (NE) 2,843 - -35.4°
